Regional Weather Roundup
Issued by NWS Glasgow, MT

Home | Current Version | Previous Version | Text Only | Print | Product List | Glossary On
Versions: 1 2 3 4 5 6 7 8 9 10 11 12 13 14 15 16 17 18 19 20 21 22 23 24 25 26 27 28
000
ASUS45 KGGW 240215
RWRGGW
HOURLY REGIONAL WEATHER ROUNDUP FOR NORTHEAST MONTANA
NATIONAL WEATHER SERVICE GLASGOW MONTANA
800 PM MDT TUE AUG 23 2016

NOTE: "FAIR" INDICATES FEW OR NO CLOUDS BELOW 12,000 FEET WITH NO
SIGNIFICANT WEATHER AND/OR OBSTRUCTIONS TO VISISBILITY.

NORTHEAST MONTANA


CITY           SKY/WX    TMP DP  RH WIND       PRES   REMARKS
GLASGOW        PTCLDY    63  47  55 W23G32    29.95R
PLENTYWOOD       N/A     65  46  50 W15G26      N/A
WOLF POINT     CLOUDY    68  50  52 W22G32    29.93R
JORDAN           N/A     67  44  43 NW16G25   30.01R
SIDNEY         PTCLDY    69  46  43 W14G24    29.92R
GLENDIVE       CLEAR     68  44  42 NW18G25   29.97R
MALTA            N/A     62  52  69 W17G29      N/A
SCOBEY           N/A     64  45  49 W13G22    29.89

FORT PECK REPORTS


CITY           SKY/WX    TMP DP  RH WIND       PRES   REMARKS
FORT PECK        N/A     67  49  52 W29G44      N/A
THE PINES        N/A     65  47  52 W12G23      N/A

SOUTHEAST MONTANA


CITY           SKY/WX    TMP DP  RH WIND       PRES   REMARKS
BILLINGS       PTCLDY    69  36  29 N13       30.08R
MILES CITY     CLEAR     72  37  28 NW17      30.00R
BAKER          CLEAR     68  35  29 NW9       29.99R
LIVINGSTON     PTCLDY    65  30  27 NW8       30.13R

CENTRAL MONTANA


CITY           SKY/WX    TMP DP  RH WIND       PRES   REMARKS
HAVRE          PTCLDY    59  51  75 W20G28    30.08R
LEWISTOWN      PTCLDY    60  43  53 NW10G21   30.18R
GREAT FALLS    CLOUDY    62  40  44 N14       30.19R
CUT BANK       CLOUDY    58  43  57 N18G26    30.21R
HELENA         PTCLDY    67  40  37 N9        30.15R
BUTTE          CLOUDY    63  29  27 NW12      30.20R
BOZEMAN        CLOUDY    63  39  41 N6        30.14R

WESTERN MONTANA


CITY           SKY/WX    TMP DP  RH WIND       PRES   REMARKS
MISSOULA       PTCLDY    70  35  27 N8        30.13R
KALISPELL      NOT AVBL

NORTH DAKOTA


CITY           SKY/WX    TMP DP  RH WIND       PRES   REMARKS
WILLISTON      CLEAR     69  43  38 W16G25    29.89R
DICKINSON      CLEAR     61  36  39 W5        29.91S
MINOT          CLEAR     69  45  41 SW6       29.82R
BISMARCK       CLEAR     67  47  48 W7        29.87R

SOUTHERN SASKATCHEWAN


CITY           SKY/WX    TMP DP  RH WIND       PRES   REMARKS
REGINA         MOCLDY    61  48  63 SW8       29.78R
ESTEVAN        PTCLDY    64  46  52 W6        29.81R
SWIFT CURRENT  MOCLDY    54  52  94 NW22G33   29.88R





USA.gov is the U.S. government's official web portal to all federal, state and local government web resources and services.